Regional Weather Roundup
Issued by NWS

Home | Current Version | Previous Version | Graphics & Text | Print | Product List | Glossary Off
Versions: 1 2 3 4 5 6 7 8 9 10 11 12 13 14 15 16 17 18 19 20 21 22 23 24 25 26 27 28 29 30 31 32 33 34 35 36 37 38 39 40 41 42 43 44 45 46 47 48 49 50

552
ASUS43 KDMX 270406
RWRIA

WEATHER ROUNDUP FOR IOWA
NATIONAL WEATHER SERVICE DES MOINES IA
1100 PM CDT WED APR 26 2017

NOTE: "FAIR" INDICATES FEW OR NO CLOUDS BELOW 12,000 FEET WITH NO
SIGNIFICANT WEATHER AND/OR OBSTRUCTIONS TO VISIBILITY.

* - THESE STATIONS ARE NOT NWS STATIONS...THUS NOT UNDER NWS
QUALITY CONTROL.  THEY ALSO DO NOT REPORT WEATHER SUCH
AS PRECIPITATION OR FOG.

IAZ001>003-012>014-020>022-031>034-043>046-270500-
   NORTHWEST IOWA

CITY           SKY/WX    TMP DP  RH WIND       PRES   REMARKS
CARROLL *      CLOUDY    37  34  87 NW14      29.64F WCI  29
CHEROKEE *     CLOUDY    33  32  94 NW10      29.67S WCI  25
DENISON *      CLOUDY    37  32  81 N10G16    29.67F WCI  30
LE MARS *      CLOUDY    36  28  75 N10       29.70S WCI  28
ORANGE CITY *  CLOUDY    34  30  86 NW9G16    29.67S WCI  26
SHELDON *      CLOUDY    32  28  86 NW16      29.65S WCI  21
SIOUX CITY     CLOUDY    36  28  73 N15G22    29.70S WCI  27
SPENCER        CLOUDY    33  29  85 NW15      29.66R WCI  23
STORM LAKE *   CLOUDY    34  30  86 NW15      29.65S WCI  24
$$

IAZ055>058-069>071-079>083-090>094-270500-
   SOUTHWEST IOWA

CITY           SKY/WX    TMP DP  RH WIND       PRES   REMARKS
ATLANTIC *     CLOUDY    39  32  75 NW17      29.66F WCI  30
AUDUBON *      CLOUDY    37  34  87 NW10      29.65F WCI  30
CLARINDA *       N/A     43  32  65 NW12G20   29.69F
COUNCIL BLFS * CLOUDY    39  34  81 NW10G16   29.68F WCI  32
CRESTON *      CLOUDY    39  36  87 NW21      29.64F WCI  29
HARLAN  *      CLOUDY    39  34  81 N14       29.69F WCI  31
LAMONI         CLOUDY    41  36  82 NW14      29.62R
RED OAK *      CLOUDY    41  32  70 NW10G16   29.67F
SHENANDOAH *   CLOUDY    43  32  65 N12G17    29.69F
$$

IAZ047>049-059>061-072>074-084-270500-
   CENTRAL IOWA

CITY           SKY/WX    TMP DP  RH WIND       PRES   REMARKS
AMES           CLOUDY    39  36  89 NW14      29.61R WCI  31
ANKENY *       CLOUDY    41  36  81 NW18G26   29.60F
BOONE *        CLOUDY    37  36  93 NW12      29.61F WCI  30
CHARITON *     CLOUDY    41  37  87 NW18      29.60S
DES MOINES     CLOUDY    42  35  76 NW18G25   29.60F
GRINNELL*      CLOUDY    41  36  81 NW16G23   29.58S
KNOXVILLE *    CLOUDY    43  36  75 NW14G23   29.58R
MARSHALLTOWN   CLOUDY    41  35  79 NW23      29.57S
NEWTON *       CLOUDY    41  37  87 NW18      29.56F
PELLA *        CLOUDY    42  37  81 NW13      29.59S
PERRY *        CLOUDY    39  36  88 NW10      29.64S WCI  32
$$

IAZ004>006-015-016-023>025-035-036-270500-
   NORTH CENTRAL IOWA

CITY           SKY/WX    TMP DP  RH WIND       PRES   REMARKS
ALGONA *       CLOUDY    34  34 100 NW13G20   29.63R FOG     WCI  25
CLARION *      CLOUDY    36  36 100 NW18      29.61S WCI  25
ESTHERVILLE    CLOUDY    31  30  96 NW15      29.64R WCI  20
FORT DODGE *   CLOUDY    36  28  75 NW7       29.63F WCI  30
MASON CITY     CLOUDY    36  33  89 NW15      29.60R WCI  27
FOREST CITY *  CLOUDY    36  32  87 NW15      29.60R WCI  26
WEBSTER CITY * CLOUDY    37  34  87 NW16G22   29.60S WCI  28
IOWA FALLS *   CLOUDY    39  35  86 NW20      29.60S WCI  30
$$

IAZ007>011-017>019-026>030-037>042-050>054-066-270500-
   NORTHEAST IOWA

CITY           SKY/WX    TMP DP  RH WIND       PRES   REMARKS
CEDAR RAPIDS   LGT RAIN  42  41  96 NW14      29.52S
CHARLES CITY * CLOUDY    39  36  87 NW14      29.56S WCI  31
CLINTON *      LGT RAIN  46  44  93 NW13      29.49S FOG
DECORAH *      CLOUDY    39  37  93 NW12      29.52R WCI  32
DUBUQUE        CLOUDY    44  40  85 NW10      29.49S
MONTICELLO *   CLOUDY    45  39  81 NW14      29.51S
OELWEIN *      CLOUDY    41  39  93 NW18      29.54S
WATERLOO       CLOUDY    40  35  83 NW17      29.55F WCI  31
$$

IAZ064-065-067-068-078-270500-
   EAST CENTRAL IOWA

CITY           SKY/WX    TMP DP  RH WIND       PRES   REMARKS
DAVENPORT      CLOUDY    47  42  83 NW14      29.49F
IOWA CITY      LGT RAIN  46  41  82 NW9       29.53F
MT. PLEASANT * LGT RAIN  44  42  91 NW14      29.52F
MUSCATINE *    CLOUDY    48  41  76 N12       29.52S
QUAD CITIES    LGT RAIN  47  44  90 N9        29.48F
$$

IAZ062-063-075>077-085>089-095>099-270500-
   SOUTHEAST IOWA

CITY           SKY/WX    TMP DP  RH WIND       PRES   REMARKS
BURLINGTON     LGT RAIN  46  44  93 N13       29.49F
FAIRFIELD *    CLOUDY    43  41  93 NW17      29.54S
FORT MADISON * LGT RAIN  46  45  93 NW10G16   29.51F
KEOKUK *       RAIN      46  45  93 NW10      29.51S
OSKALOOSA *    LGT RAIN  42  39  88 NW16      29.57S
CENTERVILLE *  LGT RAIN  41  41 100 W14       29.59S
OTTUMWA        LGT RAIN  43  41  93 NW17      29.56S
WASHINGTON *   LGT RAIN  45  43  93 NW12      29.55S
$$

ABBREVIATIONS USED IN REMARKS
   TC - TEMPERATURES IN CELSIUS
  WCI - WIND CHILL INDEX
   HX - HEAT INDEX
  VSB - VISIBILITY
$$





USA.gov is the U.S. government's official web portal to all federal, state and local government web resources and services.